Regional Weather Roundup
Issued by NWS Northern Indiana

Home | Current Version | Previous Version | Text Only | Print | Product List | Glossary On
Versions: 1 2 3 4 5 6 7 8 9 10 11 12 13 14 15 16 17 18 19 20 21 22 23 24 25 26 27 28 29 30 31 32 33 34 35 36 37 38 39 40 41 42 43 44 45 46 47 48 49 50
000
ASUS43 KIWX 030600
RWRIWX

KIWX WEATHER ROUNDUP
NATIONAL WEATHER SERVICE NORTHERN INDIANA
200 AM EDT WED JUN 03 2015

NOTE: "FAIR" INDICATES FEW OR NO CLOUDS BELOW 12,000 FEET WITH NO
SIGNIFICANT WEATHER AND/OR OBSTRUCTIONS TO VISIBILITY.

* THESE STATIONS ARE NOT UNDER NWS QUALITY CONTROL. THEY ALSO MAY NOT
  REPORT WEATHER SUCH AS PRECIPITATION OR FOG.

INZ001>027-030700-
NORTHERN INDIANA

CITY           SKY/WX    TMP DP  RH WIND       PRES   REMARKS
SOUTH BEND     FAIR      58  47  66 E7        30.12F
6HR MIN TEMP:  58; 6HR MAX TEMP:  71;

GOSHEN         CLEAR     53  45  74 CALM      30.12F
6HR MIN TEMP:  51; 6HR MAX TEMP:  69;

ANGOLA*        CLEAR     48  43  81 CALM      30.13F
FORT WAYNE     PTCLDY    51  45  79 NE5       30.12S
6HR MIN TEMP:  51; 6HR MAX TEMP:  66;

PERU/GRISSOM   CLEAR     55  51  85 E5        30.09F
6HR MIN TEMP:  55; 6HR MAX TEMP:  65;


$$
INZ028>050-030700-
CENTRAL INDIANA

CITY           SKY/WX    TMP DP  RH WIND       PRES   REMARKS
LAFAYETTE      CLEAR     50  49  96 CALM      30.08F
6HR MIN TEMP:  50; 6HR MAX TEMP:  64;

KOKOMO*        CLEAR     54  48  82 E5        30.10F
6HR MIN TEMP:  54; 6HR MAX TEMP:  64;

MUNCIE*        CLEAR     53  50  89 CALM      30.10S
6HR MIN TEMP:  52; 6HR MAX TEMP:  65;

INDIANAPOLIS   PTCLDY    57  50  77 SE3       30.07F
6HR MIN TEMP:  54; 6HR MAX TEMP:  63;


$$
MIZ043>046-050>051-056>058-064>065-071>073-077>080-030700-
SOUTHWEST LOWER MICHIGAN

CITY           SKY/WX    TMP DP  RH WIND       PRES   REMARKS
BATTLE CREEK   CLEAR     54  43  66 S5        30.14S
6HR MIN TEMP:  54; 6HR MAX TEMP:  70;

BENTON HARBOR  CLEAR     53  47  79 SE6       30.11S
6HR MIN TEMP:  47; 6HR MAX TEMP:  59;

COLDWATER*     CLEAR     50  42  74 CALM      30.13S
6HR MIN TEMP:  50; 6HR MAX TEMP:  65;

HILLSDALE*     CLEAR     53  47  81 E9        30.12F
6HR MIN TEMP:  49; 6HR MAX TEMP:  64;

HOLLAND        CLEAR     55  48  77 S7        30.12F
6HR MIN TEMP:  50; 6HR MAX TEMP:  64;

GRAND RAPIDS   CLEAR     54  48  80 SE5       30.13R
6HR MIN TEMP:  54; 6HR MAX TEMP:  69;

KALAMAZOO      CLEAR     56  42  59 S5        30.13S
6HR MIN TEMP:  56; 6HR MAX TEMP:  70;

STURGIS*       CLEAR     52  43  71 E3        30.12F
THREE RIVERS*  FAIR      55  42  61 SE3       30.13S
6HR MIN TEMP:  55; 6HR MAX TEMP:  68;


$$
OHZ001>008-015>018-024>025-030700-
NORTHWEST OHIO

CITY           SKY/WX    TMP DP  RH WIND       PRES   REMARKS
DEFIANCE       CLEAR     52  46  80 E5        30.12F
6HR MIN TEMP:  50; 6HR MAX TEMP:  65;

FINDLAY        CLEAR     53  49  86 E6        30.11F
6HR MIN TEMP:  53; 6HR MAX TEMP:  65;

TOLEDO EXPRESS CLEAR     48  47  96 CALM      30.12F
6HR MIN TEMP:  48; 6HR MAX TEMP:  63;

TOLEDO METCALF CLEAR     55  48  77 NE6       30.14F
6HR MIN TEMP:  54; 6HR MAX TEMP:  63;

LIMA           CLEAR     52  48  86 E3        30.11F
6HR MIN TEMP:  51; 6HR MAX TEMP:  65;


$$
AND FOR LAKE MICHIGAN COASTAL AND OPEN LAKE BUOY OBSERVATIONS

STATION/POSITION TEMP    WIND        PRES    VSBY  WAVE
                 AIR SEA DIR/SP/G                  HT/PER
                 (F)     (DEG/KT/KT) (MB)    (MI)  (FT/S)
CALUMET HARBOR    56      70/  2/  4   N/A
MICHIGAN CITY     57      90/  6/  7   N/A
BURNS HARBOR              CALM  /  5 1020.0R
SAINT JOSEPH      55      CALM  /  2 1020.7R
SOUTH LAKE BUOY   44 38  130/  8/ 10 1019.7F
4 MI NW BRIDGMAN  57 55  160/ 10/ 10   N/A           1
MICHIGAN CITY     57 56  150/  6/  8   N/A           1/ 3

$$
&&


USA.gov is the U.S. government's official web portal to all federal, state and local government web resources and services.